Weather reports worldwide

Advertisment
Sevilla/San Pablo, Spain (8391): temperature & dewpoint: 09.11.2018 06:00:00 - 15.11.2018 06:00:00 (CET)Sevilla/San Pablo, Spain (8391): wind speed: 09.11.2018 06:00:00 - 15.11.2018 06:00:00 (CET)Sevilla/San Pablo, Spain (8391): wind direction: 09.11.2018 06:00:00 - 15.11.2018 06:00:00 (CET)Sevilla/San Pablo, Spain (8391): reduced air pressure: 09.11.2018 06:00:00 - 15.11.2018 06:00:00 (CET)Sevilla/San Pablo, Spain (8391): visibility: 09.11.2018 06:00:00 - 15.11.2018 06:00:00 (CET)
Date & Time tt [°C] td [°C] ff [km/h] ff [kn] dd ppp [hPa] vv [km]
15.11.2018 06:00:00 - - - - - - -
15.11.2018 05:00:00 13,5 12,2 9 5 N 1013,4 -
15.11.2018 04:00:00 14,2 12,6 13 7 NNE 1013,6 30
15.11.2018 03:00:00 15,3 12,8 15 8 ENE 1013,4 -
15.11.2018 02:00:00 15,5 12,6 15 8 E 1013,6 -
15.11.2018 01:00:00 15,8 13,1 4 2 NNE 1014,4 30
15.11.2018 00:00:00 17,3 12,6 8 4 E 1014,8 -
14.11.2018 23:00:00 18,1 12,5 16 9 E 1014,8 -
14.11.2018 22:00:00 16,6 13,7 13 7 NE 1015,2 30
14.11.2018 21:00:00 16,8 13,7 9 5 E 1015,3 -
14.11.2018 20:00:00 16,6 14,1 11 6 E 1015,1 -
14.11.2018 19:00:00 18,1 14,6 11 6 E 1015,2 30
14.11.2018 18:00:00 20,7 14,3 11 6 ENE 1014,9 -
14.11.2018 17:00:00 21,6 14,6 11 6 NE 1015,1 -
14.11.2018 16:00:00 21,7 13,7 18 10 NE 1015,0 30
14.11.2018 15:00:00 22,0 13,9 18 10 ENE 1015,3 -
14.11.2018 14:00:00 21,4 13,9 21 11 NE 1016,2 -
14.11.2018 13:00:00 20,5 13,7 21 11 NE 1017,0 30
14.11.2018 12:00:00 18,5 12,7 22 12 NE 1017,9 -
14.11.2018 11:00:00 17,8 12,5 18 10 ENE 1018,6 -
14.11.2018 10:00:00 16,1 12,4 18 10 ENE 1018,9 20
14.11.2018 09:00:00 14,7 12,0 15 8 ENE 1018,9 -
14.11.2018 08:00:00 14,0 12,0 8 4 NNE 1018,7 -
14.11.2018 07:00:00 14,1 12,3 16 9 NE 1018,6 25
14.11.2018 06:00:00 13,8 12,4 11 6 ENE 1019,1 -
14.11.2018 05:00:00 14,6 12,6 18 10 ENE 1019,0 -
14.11.2018 04:00:00 15,0 12,9 16 9 ENE 1019,5 20
14.11.2018 03:00:00 15,5 13,3 11 6 E 1020,0 -
14.11.2018 02:00:00 15,9 13,4 15 8 ENE 1020,2 -
14.11.2018 01:00:00 15,6 13,4 11 6 ENE 1020,7 20
14.11.2018 00:00:00 15,3 13,5 8 4 ENE 1020,7 -
13.11.2018 23:00:00 15,2 13,7 8 4 ENE 1020,6 -
13.11.2018 22:00:00 15,5 13,3 11 6 NNE 1020,5 20
13.11.2018 21:00:00 16,4 12,9 11 6 ESE 1020,7 -
13.11.2018 20:00:00 18,1 12,5 8 4 E 1020,5 -
13.11.2018 19:00:00 17,9 14,0 9 5 NE 1020,3 30
13.11.2018 18:00:00 19,5 14,3 9 5 ENE 1019,8 -
13.11.2018 17:00:00 21,4 14,3 13 7 NE 1019,3 -
13.11.2018 16:00:00 21,3 13,5 9 5 ENE 1019,3 20
13.11.2018 15:00:00 20,4 13,9 9 5 ENE 1019,4 -
13.11.2018 14:00:00 19,6 13,5 11 6 ENE 1020,0 -
13.11.2018 13:00:00 17,5 12,9 16 9 ENE 1020,5 20
13.11.2018 12:00:00 17,3 12,7 21 11 NE 1021,1 -
13.11.2018 11:00:00 15,4 13,1 15 8 NE 1021,4 -
13.11.2018 10:00:00 13,6 12,8 13 7 NE 1021,4 15
13.11.2018 09:00:00 12,5 11,9 13 7 ENE 1021,0 -
13.11.2018 08:00:00 12,8 12,0 11 6 NNE 1020,3 -
13.11.2018 07:00:00 13,3 12,7 15 8 NE 1019,7 20
13.11.2018 06:00:00 13,1 12,6 8 4 NE 1019,7 -
13.11.2018 05:00:00 13,3 12,7 4 2 N 1019,7 -
13.11.2018 04:00:00 13,6 13,0 4 2 NNE 1019,6 25
13.11.2018 03:00:00 13,7 13,1 5 3 E 1019,7 -
13.11.2018 02:00:00 13,9 13,3 5 3 NNE 1019,6 -
13.11.2018 01:00:00 14,0 13,2 4 2 ENE 1019,8 20
13.11.2018 00:00:00 13,9 13,1 0 0 N 1019,4 -
12.11.2018 23:00:00 14,6 13,1 0 0 N 1019,1 -
12.11.2018 22:00:00 14,8 13,2 8 4 SW 1018,7 25
12.11.2018 21:00:00 14,8 13,0 4 2 NE 1018,0 -
12.11.2018 20:00:00 14,7 13,2 8 4 N 1017,6 -
12.11.2018 19:00:00 15,0 13,4 9 5 NNW 1017,4 25
12.11.2018 18:00:00 15,7 13,9 13 7 NNW 1016,8 -
12.11.2018 17:00:00 15,9 14,0 18 10 WNW 1016,4 -
12.11.2018 16:00:00 16,4 14,3 8 4 N 1015,1 25
12.11.2018 15:00:00 16,6 13,9 0 0 N 1015,7 -
12.11.2018 14:00:00 16,4 13,7 8 4 SE 1015,3 -
12.11.2018 13:00:00 15,9 13,7 5 3 SSE 1015,8 25
12.11.2018 12:00:00 15,4 13,9 11 6 SSE 1016,8 -
12.11.2018 11:00:00 14,5 13,5 15 8 ESE 1015,5 -
12.11.2018 10:00:00 14,4 13,3 11 6 SE 1015,9 10
12.11.2018 09:00:00 14,0 13,4 11 6 E 1014,8 -
12.11.2018 08:00:00 14,0 13,2 5 3 ESE 1013,8 -
12.11.2018 07:00:00 14,1 13,3 11 6 SE 1013,3 2,0
12.11.2018 06:00:00 14,3 13,3 8 4 SE 1012,6 -
12.11.2018 05:00:00 15,2 14,1 8 4 S 1012,6 -
12.11.2018 04:00:00 15,2 14,4 15 8 SSE 1012,3 6
12.11.2018 03:00:00 15,4 14,3 5 3 S 1013,2 -
12.11.2018 02:00:00 15,4 14,3 5 3 S 1013,4 -
12.11.2018 01:00:00 15,2 13,9 0 0 N 1013,6 9
12.11.2018 00:00:00 15,4 13,9 8 4 SW 1013,3 -
11.11.2018 23:00:00 15,9 14,3 11 6 S 1013,3 -
11.11.2018 22:00:00 16,2 14,2 11 6 S 1013,0 5
11.11.2018 21:00:00 16,4 14,1 9 5 SSW 1013,1 -
11.11.2018 20:00:00 17,5 14,4 11 6 SW 1013,0 -
11.11.2018 19:00:00 18,0 14,5 15 8 SW 1012,6 20
11.11.2018 18:00:00 19,5 14,9 22 12 SW 1012,1 -
11.11.2018 17:00:00 21,5 13,9 16 9 SW 1011,9 -
11.11.2018 16:00:00 22,9 13,9 13 7 SW 1012,3 30
11.11.2018 15:00:00 21,7 13,9 11 6 S 1012,6 -
11.11.2018 14:00:00 21,3 14,0 9 5 SW 1013,3 -
11.11.2018 13:00:00 21,1 15,1 11 6 S 1014,7 30
11.11.2018 12:00:00 20,5 15,3 9 5 S 1015,9 -
11.11.2018 11:00:00 18,3 15,9 9 5 S 1016,7 -
11.11.2018 10:00:00 17,1 15,8 13 7 SSE 1017,2 25
11.11.2018 09:00:00 16,1 15,3 9 5 SSE 1017,0 -
11.11.2018 08:00:00 15,9 15,1 4 2 SSE 1016,8 -
11.11.2018 07:00:00 16,1 15,1 5 3 S 1016,9 20
11.11.2018 06:00:00 16,1 15,1 9 5 S 1016,9 -
11.11.2018 05:00:00 16,1 15,1 11 6 S 1016,8 -
11.11.2018 04:00:00 16,1 14,8 9 5 S 1017,3 15
11.11.2018 03:00:00 16,2 14,7 8 4 S 1017,5 -
11.11.2018 02:00:00 16,6 15,0 11 6 S 1017,8 -
11.11.2018 01:00:00 16,7 15,1 9 5 S 1018,4 30
11.11.2018 00:00:00 16,9 14,9 13 7 S 1018,7 -
10.11.2018 23:00:00 17,1 14,7 9 5 S 1018,9 -
10.11.2018 22:00:00 17,1 14,7 9 5 S 1019,0 20
10.11.2018 21:00:00 17,3 14,6 9 5 SSW 1018,7 -
10.11.2018 20:00:00 17,4 14,5 9 5 SSW 1018,7 -
10.11.2018 19:00:00 17,6 14,5 11 6 SSW 1018,5 20
10.11.2018 18:00:00 18,1 14,6 11 6 SSW 1018,4 -
10.11.2018 17:00:00 18,4 14,3 15 8 S 1018,4 -
10.11.2018 16:00:00 18,1 14,0 9 5 SSW 1018,5 20
10.11.2018 15:00:00 17,9 14,1 9 5 SW 1018,8 -
10.11.2018 14:00:00 17,8 13,9 16 9 SW 1019,1 -
10.11.2018 13:00:00 16,9 13,5 9 5 SSW 1020,1 20
10.11.2018 12:00:00 15,6 12,3 9 5 S 1020,9 -
10.11.2018 11:00:00 14,2 11,6 0 0 N 1021,4 -
10.11.2018 10:00:00 13,1 10,8 2 1 NNW 1021,5 15
10.11.2018 09:00:00 12,5 10,6 5 3 W 1021,1 -
10.11.2018 08:00:00 12,1 10,5 8 4 S 1020,6 -
10.11.2018 07:00:00 11,9 10,5 0 0 N 1020,9 20
10.11.2018 06:00:00 11,7 10,6 4 2 S 1020,8 -
10.11.2018 05:00:00 11,4 10,5 0 0 N 1021,3 -
10.11.2018 04:00:00 10,7 9,9 0 0 N 1021,4 20
10.11.2018 03:00:00 10,2 9,3 0 0 N 1021,6 -
10.11.2018 02:00:00 10,7 9,6 0 0 N 1022,3 -
10.11.2018 01:00:00 10,5 9,1 4 2 SSE 1022,4 30
10.11.2018 00:00:00 11,2 9,6 8 4 S 1022,9 -
09.11.2018 23:00:00 12,1 9,7 8 4 S 1023,0 -
09.11.2018 22:00:00 12,6 9,8 9 5 S 1023,3 30
09.11.2018 21:00:00 14,3 9,5 9 5 WSW 1023,2 -
09.11.2018 20:00:00 15,0 9,1 16 9 WSW 1023,2 -
09.11.2018 19:00:00 15,8 8,1 13 7 WSW 1022,6 30
09.11.2018 18:00:00 17,2 8,0 15 8 W 1022,4 -
09.11.2018 17:00:00 18,7 7,3 16 9 WSW 1022,1 -
09.11.2018 16:00:00 18,5 7,3 11 6 WSW 1022,3 30
09.11.2018 15:00:00 18,4 7,2 8 4 WSW 1022,5 -
09.11.2018 14:00:00 17,7 7,4 9 5 WSW 1023,5 -
09.11.2018 13:00:00 16,9 7,3 11 6 WNW 1024,5 30
09.11.2018 12:00:00 15,9 9,4 4 2 W 1024,9 -
09.11.2018 11:00:00 14,2 9,7 4 2 SSE 1025,0 -
09.11.2018 10:00:00 12,1 9,5 2 1 WSW 1025,2 15
09.11.2018 09:00:00 9,7 9,1 2 1 NNE 1024,5 -
09.11.2018 08:00:00 7,9 7,3 0 0 N 1023,7 -
09.11.2018 07:00:00 8,0 7,2 4 2 E 1023,4 9
09.11.2018 06:00:00 8,2 7,3 0 0 N 1023,1 -

tt = temperature
td = dewpoint
ff = wind speed
dd = wind direction
ppp = reduced air pressure
vv = visibility

Next stations